Weather in Ocheretuvate

Ukraine / Dnipropetrovsk Region     48°43′04″N   35°00′11″E
temp.,
°C
wind,
m/s
gust,
m/s
humid.,
%
clouds,
%
prec.,
mm/h
press.,
hPa
HPBL,
m
11 april, sun
sun1100:00+7nne35551 0.0 102682
03:00+5nne35620 0.0 102767
06:00+4nne47670 0.0 1027118
09:00+9ne584838 0.0 1028580
12:00+13nne78356 0.0 10261389
15:00+15ne78307 0.0 10251566
18:00+14ne6937100 0.0 1024900
21:00+10nne51148100 0.0 1025328
12 april, mon
mon1200:00+9nne51056100 0.0 1024339
03:00+9nne51058100 0.0 1023473
06:00+8ne51069100 0.0 1022378
09:00+9ne4880100 0.0 1021335
12:00+15ene4566100 0.0 1020939
15:00+18ene345196 0.0 10181366
18:00+17ssw345998 0.0 101884
21:00+12ssw478399 0.0 1020221
13 april, tue
tue1300:00+11s3684100 0.0 1020248
03:00+11s3584100 0.0 1020259
06:00+10s2483100 0.0 1021204
09:00+11s2380100 0.0 1021258
12:00+13se3470100 0.0 1021669
15:00+15se445996 0.1 10201268
18:00+14se2469100 0.0 1020214
21:00+13sse2369100 0.0 102063
14 april, wed
wed1400:00+12s2272100 0.0 101918
03:00+11ssw2277100 0.0 101840
06:00+10ssw228581 0.0 101859
09:00+12s347358 0.0 1018446
12:00+15sse345550 0.0 10171245
15:00+16se3448100 0.0 10161807
18:00+15ese2454100 0.0 1015188
21:00+13ese5770100 0.1 1016280
15 april, thu
thu1500:00+12sse237499 0.0 1015121
03:00+10sw2274100 0.0 101446
06:00+10ssw2474100 0.1 1014176
09:00+10ssw1271100 0.1 1013214
12:00+12se2259100 0.0 1012685
15:00+16sse124198 0.0 10101955
18:00+13s3465100 0.1 1010447
21:00+11ssw4684100 1.1 1010397